Location: Zagreb
(45.8000°N, 16.0000°E)
Time: 08:36:25
(UTC+02:00)

ISS - Visible Passes

Search period start: 28 July 2016 00:00
Search period end: 07 August 2016 00:00
Orbit: 401 x 404 km, 51.6° (Epoch: 27 July)

Date Brightness Start Highest point End Pass type
(mag) Time Alt. Az. Time Alt. Az. Time Alt. Az.
28 Jul -1.3 01:17:29 10° WNW 01:20:24 29° N 01:23:19 10° ENE visible
28 Jul -3.2 02:55:14 22° NW 02:57:12 71° NNE 03:00:27 10° ESE visible
28 Jul -1.9 04:30:56 10° W 04:33:20 19° SW 04:35:44 10° S visible
28 Jul -2.7 21:11:01 10° SSW 21:14:00 34° SE 21:16:59 10° ENE visible
28 Jul -2.3 22:47:13 10° W 22:50:22 47° NNW 22:53:32 10° NE visible
29 Jul -1.2 00:24:25 10° WNW 00:27:17 28° N 00:27:59 25° NNE visible
29 Jul -3.1 21:54:07 10° WSW 21:57:22 70° NNW 22:00:38 10° ENE visible
29 Jul -1.3 23:31:15 10° WNW 23:34:10 29° N 23:36:28 14° NE visible
30 Jul -0.7 01:08:06 10° NW 01:09:02 17° NW 01:09:02 17° NW visible
30 Jul -3.4 21:01:11 10° SW 21:04:26 71° SSE 21:07:41 10° ENE visible
30 Jul -1.6 22:38:03 10° W 22:41:05 33° NNW 22:44:05 10° NE visible
31 Jul -1.3 00:15:07 10° NW 00:17:40 29° N 00:17:40 29° N visible
31 Jul -2.1 21:44:52 10° W 21:48:00 43° NNW 21:51:08 10° NE visible
31 Jul -1.3 23:22:03 10° WNW 23:24:56 28° N 23:26:21 20° NE visible
01 Aug -0.3 00:58:37 10° WNW 00:58:56 12° NW 00:58:56 12° NW visible
01 Aug -2.8 20:51:44 10° WSW 20:54:58 62° NNW 20:58:12 10° ENE visible
01 Aug -1.3 22:28:55 10° WNW 22:31:49 28° N 22:34:42 10° ENE visible
02 Aug -1.2 00:05:41 10° NW 00:07:37 27° NNW 00:07:37 27° NNW visible
02 Aug -1.5 21:35:43 10° WNW 21:38:41 32° N 21:41:40 10° NE visible
02 Aug -1.7 23:12:42 10° NW 23:15:41 31° N 23:16:20 28° NE visible
03 Aug -1.4 22:19:39 10° WNW 22:22:33 28° N 22:25:04 12° ENE visible
03 Aug -1.1 23:56:10 10° WNW 23:57:39 24° NW 23:57:39 24° NW visible
04 Aug -1.4 21:26:32 10° WNW 21:29:25 28° N 21:32:18 10° ENE visible
04 Aug -2.3 23:03:14 10° NW 23:06:21 41° NNE 23:06:24 41° NNE visible
05 Aug -1.8 22:10:16 10° NW 22:13:16 32° N 22:15:09 18° ENE visible
05 Aug -0.9 23:46:40 10° WNW 23:47:44 19° WNW 23:47:44 19° WNW visible
06 Aug -1.5 21:17:14 10° WNW 21:20:08 28° N 21:23:02 10° ENE visible
06 Aug -2.8 22:53:42 10° WNW 22:56:32 57° NNW 22:56:32 57° NNW visible
